STARLINK-1797, 46698

Orbit data source: Space-Track

STARLINK-1797, 46698 is a payload satellite owned by SpaceX/Seattle (US) in LEO that was launched on Sun, 18 Oct 2020 UTC via an FALCON 9 launch vehicle from the Air Force Eastern Test Range (AFETR). Payload-class satellites include a variety of spacecraft equipped with specific instruments for various scientific and technological missions. These include communications satellites like Starlink; space stations such as the ISS; scientific satellites like the Hubble; Earth observation satellites from companies like Planet Labs, Umbra, and HawkEye 360; GPS; miniature CubeSats for education and research; and military/defense satellites.

Loading next visibility...
Identifier
46698, 2020-073AE
Orbit
LEO
Country
Flag of USUS
Related business
Manufacturer
SpaceX/Seattle
Mission
Partially operational Commercial Communications
Bus & Motor
STARLINK, Unknown motor
Mass
260 kg wet, ~248 kg dry
Launch date (UTC)
2020-10-18 (5 years ago)
Launch vehicle
FALCON 9
Launch site
Air Force Eastern Test Range (AFETR)
Object type
Payload
Rocket body
Debris
Shape & HBR
Box + 1 Pan, 10.1 m
Radar Cross Section
13.562 m², Large (>1 m²)

Expand to show TLE details & history
Last TLE update: 10 hours ago

TLE from 10 hours ago
0 STARLINK-1797
1 46698U 20073AE  26033.66670139  .00112370  00000-0  21249-2 0  9991
2 46698  53.0484  17.0062 0003936   2.6988 229.4528 15.47558699  5847
Epoch: 2026-02-02T16:00Z
TLE epoch observation values (Epoch: 2026-02-02T16:00:03.000Z)
Latitude
-39.31079°
Longitude
-138.09388°
Altitude
438.482 km
Speed
7.648 km/s
True Right ascension
15h 39m 06s
True Declination
-39° 08' 04"
Sunlit
Object was in daylight at epoch
Visualization orbit readout
Latitude
Unknown
Longitude
Unknown
Altitude
Unknown
Speed
Unknown
Apparent Right ascension
Unknown
Apparent Declination
Unknown
Sunlit
N/A
Visualization observer readout
Local Sidereal Time
04:00:35
Azimuth
Unknown
Elevation
Unknown
Doppler factor
Unknown
Orbital elements
Apogee altitude
426.824 km
Perigee altitude
421.469 km
Semi-major axis
6,802.284 km
Eccentricity
0.00039
Inclination
53.0484°
RAAN
17.0062°
Arg. of periapsis
2.6988°
True anomaly
229.41854°
Mean anomaly
229.4528°
Eccentric anomaly
229.43567°
Mean motion
3.86866 °/min
Orbital period
93.06 mins
BSTAR
0.0021249
Loading maneuver chart data...
Computing Atmospheric mass density...
Loading historical data...
Loading historical data...
Loading historical data...
Loading historical data...
Loading historical data...
Loading historical data...
Loading historical data...

Documentation

Showing up to 5 results
|